Regional Weather Roundup
Issued by NWS Jackson, KY

Home | Current Version | Previous Version | Graphics & Text | Print | Product List | Glossary On
Versions: 1 2 3 4 5 6 7 8 9 10 11 12 13 14 15 16 17 18 19 20 21 22 23 24 25 26 27 28 29 30 31 32 33 34 35 36 37 38 39 40 41 42 43 44 45 46 47 48 49 50
000
ASUS43 KJKL 281410
RWRJKL

EAST KENTUCKY HOURLY WEATHER ROUNDUP
NATIONAL WEATHER SERVICE JACKSON KY
1000 AM EDT SAT MAR 28 2015

NOTE: "FAIR" INDICATES FEW OR NO CLOUDS BELOW 12,000 FEET WITH
NO SIGNIFICANT WEATHER AND/OR OBSTRUCTIONS TO VISIBILITY.

* THESE REPORTS ARE NOT UNDER NWS QUALITY CONTROL AND MAY NOT
  REPORT WEATHER SUCH AS PRECIPITATION AND FOG.

KYZ079-080-083-085-087-088-110-112-115-119-120-281500
...EASTERN KENTUCKY...

CITY           SKY/WX    TMP DP  RH WIND       PRES   REMARKS
JACKSON        LGT SNOW  26  14  60 VRB3      30.17R
LONDON         PTSUNNY   30  11  45 N8        30.19R WCI  22
SOMERSET*      SUNNY     28  14  54 NE7       30.24R WCI  21
MONTICELLO*    PTSUNNY   30  17  58 NE8       30.25R WCI  22
MIDDLESBORO*   PTSUNNY   29  14  52 N12       30.18R WCI  20
HAZARD APT*    CLOUDY    27  19  74 CALM      30.19R
BLACK MTN*       N/A     14  14 100 VRB7        N/A  WCI   4
PIKEVILLE APT* PTSUNNY   25   9  50 N9        30.16R WCI  15
BIG SANDY*     MOSUNNY   28   9  44 N8G18     30.19R WCI  20
MOREHEAD APT*  SUNNY     27   7  43 VRB6G13   30.24R WCI  20
$$

KYZ035-036-041-042-044-050-067-078-099-281500
...CENTRAL KENTUCKY...

CITY           SKY/WX    TMP DP  RH WIND       PRES   REMARKS
MT STERLING*   MOSUNNY   28  18  64 NE9       30.24R WCI  20
FLEMING/MASON* SUNNY     25  14  63 N8        30.25R WCI  16
DANVILLE*      SUNNY     28  18  64 NE6       30.24R WCI  22
RICHMOND*      SUNNY     27  16  63 NE6       30.22R WCI  20
LEXINGTON      SUNNY     27  17  66 VRB6      30.23R WCI  20
FRANKFORT      SUNNY     26  15  63 NE7       30.24R WCI  18
$$

KYZ091>093-OHZ055-061-077-WVZ005-015-034-035-042-281500
...SOUTHERN OHIO/WEST VIRGINIA...

CITY           SKY/WX    TMP DP  RH WIND       PRES   REMARKS
COVINGTON        N/A     26  16  65 VRB6      30.25R WCI  19
COLUMBUS       PTSUNNY   22   9  57 N12       30.24R WCI  10
DAYTON         MOSUNNY   24  10  55 NE12      30.26R WCI  13
WILMINGTON     CLOUDY    22  12  65 N12       30.24R WCI  10
HUNTINGTON     MOSUNNY   26  11  52 N9        30.22R WCI  17
CHARLESTON     PTSUNNY   24   8  50 N9G21     30.18R WCI  14
PINEVILLE*     MOSUNNY   28   9  45 MISG      30.15R
BECKLEY        PTSUNNY   19   4  51 NW16      30.03R WCI   4
BLUEFIELD      MOSUNNY   22   2  42 NW14G20   30.00R WCI   9
$$

VAZ002-007-008-TNZ017-027-036-066-071-281500
...SOUTHWEST VIRGINIA/EAST TENNESSEE...

CITY           SKY/WX    TMP DP  RH WIND       PRES   REMARKS
WISE*          CLOUDY    23   9  54 NW6       30.06R WCI  16
JONESVILLE*    MOSUNNY   30  10  43 NW7       30.17R WCI  23
ABINGDON*      FLURRIES  26  16  64 N9G20     30.08R WCI  17
BRISTOL        MOSUNNY   29  11  47 W10       30.12R WCI  20
KNOXVILLE      MOSUNNY   34  17  50 N12       30.17R WCI  25
OAK RIDGE      SUNNY     35  15  44 N6        30.20R WCI  30
CROSSVILLE     CLOUDY    31  18  58 N12       30.14R WCI  22
NASHVILLE      MOSUNNY   34  13  41 N13       30.26R WCI  25
$$

...KEY TO REMARKS...
VSB - VISIBILITY IN MILES
WCI - WIND CHILL INDEX
HX  - HEAT INDEX

$$



USA.gov is the U.S. government's official web portal to all federal, state and local government web resources and services.